Overview Statistics Trail Chart Weather Telemetry Raw packets
 

This is the latest recevied weather packets stored in our database for station/object W0WFX-2. If no packets are shown the sender has not sent any weather packets the latest 10 day(s).

<< 83 84 85 86 87 88 89 >>
Time Temp. Humidity Pressure Rain* Wind** Luminosity Snow
1788031839 36.11° C 38% 1014.7 hPa 0 mm - 705 W/m² -
1788031539 36.11° C 40% 1014.6 hPa 0 mm - 706 W/m² -
1788031238 35.56° C 40% 1014.8 hPa 0 mm - 717 W/m² -
1788030938 35° C 39% 1014.8 hPa 0 mm - 712 W/m² -
1788030637 35° C 41% 1014.8 hPa 0 mm - 681 W/m² -
1788030332 34.44° C 41% 1015.1 hPa 0 mm - 575 W/m² -
1788030028 34.44° C 41% 1014.8 hPa 0 mm - 618 W/m² -
1788029728 35° C 40% 1015.1 hPa 0 mm - 641 W/m² -
1788029423 35° C 41% 1014.8 hPa 0 mm - 645 W/m² -
1788029122 35° C 39% 1015 hPa 0 mm - 643 W/m² -
1788028816 35° C 40% 1015.2 hPa 0 mm - 666 W/m² -
1788028516 35° C 40% 1015.3 hPa 0 mm - 702 W/m² -
1788028212 35° C 40% 1015.3 hPa 0 mm - 735 W/m² -
1788027907 34.44° C 40% 1015.5 hPa 0 mm - 733 W/m² -
1788027601 34.44° C 41% 1015.5 hPa 0 mm - 748 W/m² -
1788027296 34.44° C 41% 1015.9 hPa 0 mm - 749 W/m² -
1788026995 34.44° C 40% 1015.8 hPa 0 mm - 755 W/m² -
1788026696 33.89° C 40% 1016.1 hPa 0 mm - 732 W/m² -
1788026386 33.89° C 41% 1016 hPa 0 mm - 721 W/m² -
1788026082 33.33° C 43% 1016.2 hPa 0 mm - 709 W/m² -
1788025780 33.33° C 42% 1016.2 hPa 0 mm - 710 W/m² -
1788025479 33.33° C 42% 1016.5 hPa 0 mm - 694 W/m² -
1788025175 33.33° C 43% 1016.3 hPa 0 mm - 687 W/m² -
1788024875 33.33° C 44% 1016.4 hPa 0 mm - 632 W/m² -
1788024571 32.78° C 44% 1016.6 hPa 0 mm - 696 W/m² -

* Rain latest hour (hover to see other rain measurements)
** Current wind speed in m/s (hover to see current wind gust speed)